| time (UTC) | temp F | wind direction | speed knots | gust knots | rain 1hr in | rain 24hr in | rain mn in | humidity % | barometer mb |
| 20260506205127 | 53 | 170 | 0.0 | 2.6 | 0.04 | 4.53 | 1.15 | 91 | 1011.2 |
| 20260506204132 | 53 | 19 | 0.9 | 3.5 | 0.28 | 4.53 | 1.15 | 91 | 1011.1 |
| 20260506203123 | 54 | 288 | 0.0 | 1.7 | 0.39 | 4.53 | 1.15 | 90 | 1011.0 |
| 20260506202127 | 54 | 290 | 0.9 | 3.5 | 0.39 | 4.53 | 1.15 | 90 | 1011.0 |
| 20260506201130 | 53 | 310 | 0.0 | 1.7 | 0.39 | 4.53 | 1.15 | 91 | 1010.9 |
| 20260506200136 | 54 | 311 | 0.9 | 2.6 | 0.39 | 4.53 | 1.15 | 91 | 1010.9 |
| 20260506195129 | 54 | 26 | 0.0 | 1.7 | 0.35 | 4.49 | 1.14 | 90 | 1010.7 |
| 20260506194134 | 54 | 26 | 0.0 | 0.9 | 0.12 | 4.25 | 1.08 | 89 | 1010.6 |
| 20260506193141 | 54 | 26 | 0.0 | 1.7 | 0.00 | 4.13 | 1.05 | 88 | 1010.5 |
| 20260506192125 | 54 | 26 | 0.9 | 2.6 | 0.00 | 4.13 | 1.05 | 87 | 1010.2 |
| 20260506191125 | 55 | 26 | 1.7 | 7.8 | 0.00 | 4.13 | 1.05 | 85 | 1010.1 |
| 20260506190130 | 55 | 22 | 1.7 | 6.1 | 0.00 | 4.13 | 1.05 | 85 | 1009.8 |
| 20260506185132 | 55 | 355 | 0.0 | 4.3 | 0.00 | 4.13 | 1.05 | 84 | 1009.7 |
| 20260506184131 | 56 | 43 | 0.0 | 4.3 | 0.00 | 4.13 | 1.05 | 81 | 1009.4 |
| 20260506183120 | 56 | 30 | 1.7 | 9.6 | 0.00 | 4.13 | 1.05 | 80 | 1009.0 |
| 20260506182124 | 56 | 355 | 1.7 | 7.8 | 0.00 | 4.13 | 1.05 | 80 | 1008.9 |
| 20260506181129 | 56 | 90 | 0.9 | 4.3 | 0.00 | 4.13 | 1.05 | 79 | 1009.0 |
| 20260506180133 | 56 | 27 | 0.0 | 3.5 | 0.00 | 4.13 | 1.05 | 81 | 1009.0 |
| 20260506175142 | 56 | 25 | 0.9 | 1.7 | 0.00 | 4.17 | 1.05 | 80 | 1008.5 |
| 20260506174126 | 57 | 25 | 0.9 | 4.3 | 0.00 | 4.17 | 1.05 | 78 | 1008.4 |
| 20260506173134 | 57 | 348 | 0.9 | 3.5 | 0.00 | 4.17 | 1.05 | 75 | 1008.4 |
| 20260506172139 | 58 | 355 | 0.0 | 4.3 | 0.00 | 4.17 | 1.05 | 75 | 1008.4 |
| 20260506171144 | 59 | 44 | 1.7 | 5.2 | 0.00 | 4.17 | 1.05 | 72 | 1008.4 |
| 20260506170132 | 60 | 37 | 0.9 | 2.6 | 0.00 | 4.17 | 1.05 | 70 | 1008.3 |
| 20260506165137 | 61 | 18 | 0.0 | 2.6 | 0.00 | 4.17 | 1.05 | 71 | 1008.1 |
| 20260506164142 | 61 | 11 | 1.7 | 3.5 | 0.00 | 4.17 | 1.05 | 69 | 1008.0 |
| 20260506163126 | 61 | 82 | 0.9 | 3.5 | 0.00 | 4.17 | 1.05 | 72 | 1007.8 |
| 20260506162137 | 59 | 74 | 0.0 | 3.5 | 0.00 | 4.17 | 1.05 | 72 | 1007.9 |
| 20260506161121 | 59 | 360 | 1.7 | 5.2 | 0.00 | 4.17 | 1.05 | 71 | 1007.7 |
| 20260506160127 | 58 | 19 | 1.7 | 9.6 | 0.00 | 4.17 | 1.05 | 74 | 1007.4 |
| 20260506155132 | 57 | 44 | 3.5 | 7.8 | 0.00 | 4.17 | 1.05 | 73 | 1007.3 |
| 20260506154121 | 57 | 55 | 1.7 | 7.0 | 0.00 | 4.17 | 1.05 | 73 | 1007.6 |
| 20260506153127 | 57 | 32 | 2.6 | 8.7 | 0.00 | 4.17 | 1.05 | 73 | 1007.7 |
| 20260506152152 | 58 | 139 | 3.5 | 8.7 | 0.00 | 4.17 | 1.05 | 72 | 1007.7 |
| 20260506151137 | 59 | 44 | 2.6 | 5.2 | 0.00 | 4.17 | 1.05 | 72 | 1007.8 |
| 20260506150126 | 60 | 53 | 1.7 | 7.0 | 0.00 | 4.17 | 1.05 | 69 | 1007.8 |
| 20260506145129 | 62 | 317 | 2.6 | 8.7 | 0.00 | 4.17 | 1.05 | 71 | 1007.9 |
| 20260506144134 | 62 | 36 | 1.7 | 4.3 | 0.00 | 4.17 | 1.05 | 74 | 1007.8 |
| 20260506143139 | 61 | 36 | 1.7 | 8.7 | 0.00 | 4.17 | 1.05 | 72 | 1007.9 |
| 20260506142127 | 62 | 23 | 1.7 | 5.2 | 0.00 | 4.17 | 1.05 | 74 | 1007.7 |
| 20260506141133 | 61 | 44 | 2.6 | 7.0 | 0.00 | 4.17 | 1.05 | 75 | 1007.6 |
| 20260506140159 | 61 | 22 | 1.7 | 5.2 | 0.00 | 4.17 | 1.05 | 78 | 1007.8 |
| 20260506135123 | 61 | 348 | 0.9 | 5.2 | 0.00 | 4.21 | 1.05 | 78 | 1008.0 |
| 20260506134132 | 61 | 13 | 1.7 | 5.2 | 0.00 | 4.21 | 1.05 | 76 | 1008.1 |
| 20260506133159 | 60 | 29 | 1.7 | 5.2 | 0.00 | 4.21 | 1.05 | 81 | 1008.1 |
| 20260506132201 | 59 | 28 | 0.9 | 4.3 | 0.00 | 4.21 | 1.05 | 83 | 1008.2 |
| 20260506131126 | 59 | 338 | 1.7 | 8.7 | 0.00 | 4.21 | 1.05 | 81 | 1008.3 |
| 20260506130130 | 60 | 53 | 3.5 | 7.8 | 0.00 | 4.21 | 1.05 | 80 | 1008.3 |
| 20260506125140 | 59 | 42 | 1.7 | 6.1 | 0.00 | 4.21 | 1.05 | 83 | 1008.3 |
| 20260506124126 | 58 | 48 | 2.6 | 6.1 | 0.00 | 4.21 | 1.05 | 85 | 1008.2 |
| 20260506123132 | 58 | 80 | 2.6 | 7.8 | 0.00 | 4.21 | 1.05 | 87 | 1008.1 |
| 20260506122138 | 57 | 64 | 3.5 | 8.7 | 0.00 | 4.21 | 1.05 | 91 | 1008.0 |
| 20260506121147 | 56 | 30 | 3.5 | 7.8 | 0.12 | 4.21 | 1.05 | 91 | 1008.1 |
| 20260506120133 | 55 | 22 | 2.6 | 9.6 | 1.93 | 4.21 | 1.05 | 93 | 1008.1 |
| 20260506115139 | 54 | 59 | 2.6 | 5.2 | 2.83 | 4.25 | 1.05 | 97 | 1008.1 |
| 20260506114125 | 51 | 9 | 1.7 | 7.0 | 2.99 | 4.25 | 1.05 | 96 | 1008.1 |
| 20260506113137 | 50 | 40 | 0.0 | 5.2 | 2.99 | 4.25 | 1.05 | 94 | 1008.3 |
| 20260506112123 | 51 | 62 | 1.7 | 5.2 | 2.95 | 4.21 | 1.04 | 93 | 1008.2 |
| 20260506111128 | 52 | 48 | 0.9 | 13.0 | 3.03 | 4.13 | 1.02 | 90 | 1007.8 |
| 20260506110141 | 55 | 252 | 1.7 | 9.6 | 1.38 | 2.32 | 0.56 | 90 | 1008.2 |
| 20260506105146 | 56 | 258 | 0.9 | 3.5 | 0.35 | 1.34 | 0.30 | 95 | 1007.8 |
| 20260506104135 | 56 | 63 | 0.9 | 7.0 | 0.31 | 1.30 | 0.29 | 94 | 1007.5 |
| 20260506103200 | 56 | 161 | 0.9 | 7.0 | 0.31 | 1.30 | 0.29 | 95 | 1007.7 |
| 20260506102124 | 56 | 87 | 1.7 | 4.3 | 0.31 | 1.30 | 0.29 | 95 | 1007.8 |
| 20260506101128 | 56 | 137 | 0.9 | 7.0 | 0.12 | 1.10 | 0.24 | 94 | 1007.8 |
| 20260506100158 | 56 | 63 | 1.7 | 7.0 | 0.00 | 0.98 | 0.21 | 94 | 1007.7 |
| 20260506095141 | 56 | 51 | 3.5 | 7.8 | 0.00 | 1.10 | 0.21 | 94 | 1007.8 |
| 20260506094126 | 56 | 119 | 2.6 | 7.0 | 0.00 | 1.10 | 0.21 | 96 | 1007.8 |
| 20260506093153 | 56 | 92 | 3.5 | 8.7 | 0.00 | 1.10 | 0.21 | 95 | 1007.6 |
| 20260506092139 | 55 | 81 | 2.6 | 7.8 | 0.00 | 1.10 | 0.21 | 96 | 1007.6 |
| 20260506091127 | 55 | 146 | 2.6 | 8.7 | 0.00 | 1.10 | 0.21 | 96 | 1007.5 |
| 20260506090133 | 55 | 13 | 2.6 | 6.1 | 0.00 | 1.10 | 0.21 | 96 | 1007.5 |
| 20260506085158 | 55 | 86 | 2.6 | 10.4 | 0.04 | 1.30 | 0.21 | 95 | 1007.6 |
| 20260506084124 | 55 | 86 | 3.5 | 10.4 | 0.08 | 1.30 | 0.21 | 95 | 1007.6 |
| 20260506083134 | 55 | 9 | 3.5 | 10.4 | 0.12 | 1.30 | 0.21 | 96 | 1007.8 |
| 20260506082140 | 55 | 148 | 0.9 | 7.0 | 0.16 | 1.30 | 0.21 | 96 | 1007.8 |
| 20260506081127 | 55 | 140 | 0.0 | 5.2 | 0.16 | 1.30 | 0.21 | 96 | 1007.9 |
| 20260506080135 | 55 | 141 | 0.0 | 6.1 | 0.16 | 1.30 | 0.21 | 96 | 1008.0 |
| 20260506073134 | 55 | 127 | 0.9 | 3.5 | 0.04 | 1.46 | 0.18 | 96 | 1008.3 |
| 20260506072139 | 55 | 126 | 0.0 | 1.7 | 0.00 | 1.42 | 0.17 | 96 | 1008.3 |
| 20260506071128 | 55 | 213 | 0.0 | 1.7 | 0.00 | 1.42 | 0.17 | 96 | 1008.3 |
| 20260506070132 | 54 | 147 | 0.0 | 3.5 | 0.00 | 1.42 | 0.17 | 97 | 1008.6 |
| 20260506062155 | 54 | 82 | 0.9 | 2.6 | 0.04 | 2.13 | 0.17 | 97 | 1008.5 |
| 20260506061138 | 53 | 95 | 0.0 | 0.9 | 0.12 | 2.13 | 0.17 | 97 | 1008.5 |
| 20260506060138 | 53 | 5 | 0.0 | 0.9 | 0.20 | 2.13 | 0.17 | 96 | 1008.4 |
| 20260506051124 | 53 | 5 | 0.0 | 0.9 | 0.28 | 2.52 | 0.13 | 96 | 1008.7 |
| 20260506050134 | 53 | 5 | 0.0 | 0.9 | 0.24 | 2.48 | 0.12 | 96 | 1008.6 |
| 20260506045121 | 53 | 5 | 0.0 | 0.9 | 0.16 | 2.68 | 0.10 | 96 | 1008.8 |
| 20260506044127 | 53 | 5 | 0.0 | 0.9 | 0.16 | 2.68 | 0.10 | 96 | 1008.8 |
| 20260506043133 | 53 | 5 | 0.0 | 0.0 | 0.16 | 2.68 | 0.10 | 96 | 1009.0 |
| 20260506042124 | 53 | 5 | 0.0 | 0.0 | 0.08 | 2.60 | 0.08 | 96 | 1009.2 |
| 20260506041130 | 53 | 5 | 0.0 | 0.9 | 0.00 | 2.52 | 0.06 | 96 | 1009.3 |
| 20260506040135 | 53 | 5 | 0.0 | 0.9 | 0.04 | 2.52 | 0.06 | 96 | 1009.3 |
| 20260506035126 | 53 | 5 | 0.0 | 0.9 | 0.20 | 2.60 | 0.06 | 96 | 1009.2 |
| 20260506034133 | 53 | 5 | 0.0 | 0.9 | 0.24 | 2.60 | 0.06 | 96 | 1009.5 |
| 20260506033120 | 53 | 5 | 0.0 | 1.7 | 0.24 | 2.60 | 0.06 | 96 | 1009.4 |
| 20260506032147 | 53 | 5 | 0.0 | 2.6 | 0.24 | 2.60 | 0.06 | 96 | 1009.5 |
| 20260506031132 | 53 | 5 | 0.0 | 1.7 | 0.24 | 2.60 | 0.06 | 96 | 1009.6 |
| 20260506030123 | 53 | 5 | 0.0 | 0.0 | 0.20 | 2.56 | 0.05 | 96 | 1009.8 |
| 20260506025128 | 53 | 5 | 0.0 | 0.0 | 0.04 | 2.40 | 0.01 | 96 | 1010.1 |
| 20260506024134 | 53 | 5 | 0.0 | 0.0 | 0.00 | 2.36 | 0.00 | 96 | 1010.2 |
| 20260506023126 | 53 | 5 | 0.0 | 1.7 | 0.00 | 2.36 | 0.00 | 96 | 1010.3 |
| 20260506022131 | 53 | 5 | 0.0 | 0.0 | 0.00 | 2.36 | 0.00 | 96 | 1010.4 |
| 20260506021137 | 53 | 5 | 0.0 | 1.7 | 0.00 | 2.36 | 0.00 | 96 | 1010.4 |
| 20260506020123 | 53 | 5 | 0.0 | 0.9 | 0.00 | 2.36 | 0.00 | 96 | 1010.4 |
| 20260506015130 | 53 | 5 | 0.0 | 0.9 | 0.00 | 2.36 | 0.00 | 96 | 1010.5 |
| 20260506014156 | 53 | 5 | 0.0 | 0.0 | 0.00 | 2.36 | 0.00 | 96 | 1010.6 |
| 20260506013121 | 53 | 5 | 0.0 | 0.0 | 0.00 | 2.36 | 0.00 | 96 | 1010.7 |
| 20260506012127 | 53 | 5 | 0.0 | 0.0 | 0.00 | 2.36 | 0.00 | 96 | 1010.7 |
| 20260506011134 | 53 | 5 | 0.0 | 0.0 | 0.00 | 2.36 | 0.00 | 96 | 1010.9 |
| 20260506010122 | 53 | 5 | 0.0 | 0.0 | 0.00 | 2.36 | 0.00 | 96 | 1011.0 |
| 20260506005126 | 53 | 5 | 0.0 | 0.0 | 0.00 | 2.36 | 0.00 | 96 | 1011.1 |
| 20260506004130 | 53 | 5 | 0.0 | 0.9 | 0.00 | 2.36 | 0.00 | 96 | 1011.1 |
| 20260506003157 | 53 | 5 | 0.0 | 0.0 | 0.00 | 2.36 | 0.00 | 96 | 1011.4 |
| 20260506002147 | 53 | 5 | 0.0 | 0.0 | 0.00 | 2.36 | 0.00 | 96 | 1011.4 |
| 20260506001132 | 53 | 5 | 0.0 | 1.7 | 0.00 | 2.36 | 0.00 | 96 | 1011.4 |
| 20260506000140 | 53 | 5 | 0.0 | 1.7 | 0.00 | 2.36 | 0.00 | 96 | 1011.4 |
| 20260505235125 | 53 | 5 | 0.0 | 0.9 | 0.00 | 2.36 | 0.00 | 96 | 1011.5 |
| 20260505234156 | 53 | 5 | 0.0 | 0.9 | 0.00 | 2.36 | 0.00 | 96 | 1011.7 |
| 20260505233200 | 53 | 5 | 0.0 | 0.9 | 0.00 | 2.36 | 0.00 | 96 | 1011.9 |
| 20260505232125 | 53 | 5 | 0.0 | 0.0 | 0.00 | 2.36 | 0.00 | 96 | 1012.0 |
| 20260505231153 | 53 | 5 | 0.0 | 1.7 | 0.00 | 2.36 | 0.00 | 96 | 1011.9 |
| 20260505230139 | 53 | 5 | 0.0 | 0.0 | 0.00 | 2.36 | 0.00 | 96 | 1012.2 |
| 20260505225129 | 53 | 5 | 0.0 | 0.0 | 0.00 | 2.36 | 0.00 | 96 | 1012.1 |
| 20260505224157 | 53 | 5 | 0.0 | 0.0 | 0.00 | 2.36 | 0.00 | 96 | 1012.4 |
| 20260505223141 | 53 | 5 | 0.0 | 0.0 | 0.00 | 2.36 | 0.00 | 96 | 1012.4 |
| 20260505222127 | 53 | 5 | 0.0 | 0.0 | 0.00 | 2.36 | 0.00 | 96 | 1012.4 |
| 20260505221136 | 53 | 5 | 0.0 | 0.9 | 0.00 | 2.36 | 0.00 | 96 | 1012.3 |
| 20260505220143 | 53 | 5 | 0.0 | 2.6 | 0.00 | 2.36 | 0.00 | 96 | 1012.3 |
| 20260505215129 | 53 | 5 | 0.9 | 3.5 | 0.00 | 2.36 | 0.60 | 96 | 1012.4 |
| 20260505214135 | 53 | 11 | 0.0 | 3.5 | 0.00 | 2.36 | 0.60 | 96 | 1012.5 |
| 20260505213158 | 53 | 11 | 0.0 | 1.7 | 0.00 | 2.36 | 0.60 | 96 | 1012.6 |
| 20260505212124 | 53 | 11 | 0.0 | 0.9 | 0.00 | 2.36 | 0.60 | 96 | 1012.7 |
| 20260505211129 | 53 | 11 | 0.0 | 0.9 | 0.00 | 2.36 | 0.60 | 96 | 1012.9 |
| 20260505210128 | 53 | 11 | 0.0 | 0.9 | 0.00 | 2.36 | 0.60 | 96 | 1012.9 |